CW0238 Weather Reports


Display with metric or nautical units.
time (UTC)temp
F
wind
direction
speed
MPH
gust
MPH
rain 1hr
in
rain 24hr
in
rain mn
in
humidity
%
barometer
mb
20260904060517 77 240 0.0 0.0 0.00 0.00 0.00 84 1014.9
20260904060018 77 240 0.0 0.0 0.00 0.00 0.00 84 1014.9
20260904055517 77 240 0.0 0.0 0.00 0.00 0.00 84 1014.8
20260904055240 77 240 0.0 0.0 0.00 0.00 0.00 84 1014.8
20260904054519 77 240 0.0 0.0 0.00 0.00 0.00 84 1014.9
20260904054236 77 240 0.0 0.0 0.00 0.00 0.00 84 1014.9
20260904053514 77 240 0.0 0.0 0.00 0.00 0.00 84 1014.9
20260904053012 77 240 0.0 0.0 0.00 0.00 0.00 84 1015.0
20260904052520 77 240 0.0 0.0 0.00 0.00 0.00 84 1015.0
20260904052011 77 240 0.0 0.0 0.00 0.00 0.00 84 1015.0
20260904051509 77 240 0.0 0.0 0.00 0.00 0.00 83 1015.0
20260904051007 77 240 0.0 0.0 0.00 0.00 0.00 83 1015.1
20260904050734 78 240 0.0 0.0 0.00 0.00 0.00 83 1015.1
20260904050007 78 240 0.0 0.0 0.00 0.00 0.00 83 1015.0
20260904045511 78 240 0.0 0.0 0.00 0.00 0.00 82 1015.0
20260904045006 78 240 0.0 0.0 0.00 0.00 0.00 82 1015.1
20260904044506 78 240 0.0 0.0 0.00 0.00 0.00 82 1015.1
20260904044005 78 240 0.0 0.0 0.00 0.00 0.00 82 1015.1
20260904043506 78 240 0.0 0.0 0.00 0.00 0.00 82 1015.1
20260904043002 78 240 0.0 0.0 0.00 0.00 0.00 81 1015.0
20260904042504 78 240 0.0 0.0 0.00 0.00 0.00 81 1015.0
20260904042002 78 240 0.0 0.0 0.00 0.00 0.00 81 1015.0
20260904041504 78 240 0.0 0.0 0.00 0.00 0.00 81 1015.0
20260904041005 78 240 0.0 0.0 0.00 0.00 0.00 81 1015.0
20260904040505 79 240 0.0 0.0 0.00 0.00 0.00 80 1015.1
20260904040004 79 240 0.0 0.0 0.00 0.00 0.00 80 1015.0
20260904035504 79 240 0.0 0.0 0.00 0.00 0.00 80 1015.1
20260904035239 79 240 0.0 0.0 0.00 0.00 0.00 80 1015.1
20260904034503 79 240 0.0 0.0 0.00 0.00 0.00 79 1015.2
20260904034234 79 240 0.0 0.0 0.00 0.00 0.00 79 1015.1
20260904033502 80 240 0.0 0.0 0.00 0.00 0.00 79 1015.2
20260904032956 79 240 0.0 0.0 0.00 0.00 0.00 79 1015.3
20260904032454 79 240 0.0 0.0 0.00 0.00 0.00 79 1015.3
20260904032222 80 240 0.0 0.0 0.00 0.00 0.00 79 1015.3
20260904031450 80 240 0.0 0.0 0.00 0.00 0.00 78 1015.3
20260904030948 80 240 0.0 0.0 0.00 0.00 0.00 79 1015.3
20260904030447 80 240 0.0 0.0 0.00 0.00 0.00 78 1015.3
20260904025946 80 240 0.0 0.0 0.00 0.00 0.00 78 1015.3
20260904025445 80 240 0.0 0.0 0.00 0.00 0.00 77 1015.3
20260904024944 81 240 0.0 0.0 0.00 0.00 0.00 76 1015.3
20260904024446 81 240 0.0 0.0 0.00 0.00 0.00 75 1015.4
20260904024212 81 240 0.0 0.0 0.00 0.00 0.00 75 1015.4
20260904023703 81 240 0.0 0.0 0.00 0.00 0.00 76 1015.4
20260904022946 81 240 0.0 0.0 0.00 0.00 0.00 77 1015.4
20260904022442 81 240 0.0 0.0 0.00 0.00 0.00 77 1015.3
20260904021940 82 240 0.0 0.0 0.00 0.00 0.00 76 1015.3
20260904021440 82 240 0.0 0.0 0.00 0.00 0.00 75 1015.3
20260904020952 82 240 0.0 0.0 0.00 0.00 0.00 73 1015.3
20260904020442 83 240 0.0 0.0 0.00 0.00 0.00 73 1015.4
20260904015951 83 240 0.0 0.0 0.00 0.00 0.00 73 1015.3
20260904015705 83 240 0.0 0.0 0.00 0.00 0.00 73 1015.2
20260904014936 83 240 0.0 0.0 0.00 0.00 0.00 74 1015.2
20260904014443 83 240 0.0 0.0 0.00 0.00 0.00 73 1015.2
20260904013932 83 240 0.0 0.0 0.00 0.00 0.00 72 1015.1
20260904013429 83 240 0.0 0.0 0.00 0.00 0.00 72 1015.1
20260904012926 84 240 0.0 0.0 0.00 0.00 0.00 72 1015.0
20260904012425 84 240 0.0 0.0 0.00 0.00 0.00 71 1015.0
20260904011922 84 240 0.0 0.0 0.00 0.00 0.00 70 1015.0
20260904011647 85 240 0.0 0.0 0.00 0.00 0.00 70 1014.9
20260904010925 85 240 0.0 0.0 0.00 0.00 0.00 70 1014.8
20260904010417 85 240 0.0 0.0 0.00 0.00 0.00 70 1014.9
20260904005916 85 240 0.0 0.0 0.00 0.00 0.00 70 1014.8
20260904005418 85 240 0.0 0.0 0.00 0.00 0.00 70 1014.7
20260904004408 86 240 0.0 0.0 0.00 0.00 0.00 70 1014.5
20260904003913 86 240 0.0 0.0 0.00 0.00 0.00 70 1014.5
20260904003405 86 240 0.0 0.0 0.00 0.00 0.00 69 1014.5
20260904002904 86 240 0.0 0.0 0.00 0.00 0.00 71 1014.3
20260904001902 88 240 0.0 0.0 0.00 0.00 0.00 67 1014.2
20260904001402 89 240 0.0 0.0 0.00 0.00 0.00 66 1014.1
20260904000859 89 240 0.0 0.0 0.00 0.00 0.00 66 1014.1
20260904000624 89 240 0.0 0.0 0.00 0.00 0.00 65 1014.1
20260903235855 90 240 0.0 0.0 0.00 0.00 0.00 63 1014.1
20260903235351 91 240 0.0 0.0 0.00 0.00 0.00 63 1014.1
20260903235116 91 240 0.0 0.0 0.00 0.00 0.00 63 1014.1
20260903234352 91 240 0.0 0.0 0.00 0.00 0.00 63 1014.0
20260903233850 92 240 0.0 0.0 0.00 0.00 0.00 61 1014.0
20260903232848 93 240 0.0 0.0 0.00 0.00 0.00 57 1014.0
20260903232350 93 240 0.0 0.0 0.00 0.00 0.00 55 1013.9
20260903231845 94 240 0.0 0.0 0.00 0.00 0.00 53 1013.9
20260903231612 94 240 0.0 0.0 0.00 0.00 0.00 52 1014.0
20260903230842 94 240 0.0 0.0 0.00 0.00 0.00 51 1013.9
20260903230337 94 240 0.0 0.0 0.00 0.00 0.00 50 1013.8
20260903225836 95 240 0.0 0.0 0.00 0.00 0.00 49 1013.9
20260903225337 95 240 0.0 0.0 0.00 0.00 0.00 48 1013.9
20260903225101 96 240 0.0 0.0 0.00 0.00 0.00 47 1013.9
20260903224603 96 240 0.0 1.0 0.00 0.00 0.00 45 1013.9
20260903223835 96 241 0.0 1.0 0.00 0.00 0.00 46 1013.9
20260903223335 96 241 0.0 1.0 0.00 0.00 0.00 45 1013.9
20260903222834 96 241 0.0 1.0 0.00 0.00 0.00 46 1013.8
20260903222057 97 241 1.0 3.0 0.00 0.00 0.00 45 1013.8
20260903221329 97 221 0.0 2.0 0.00 0.00 0.00 45 1013.8
20260903220829 97 214 0.0 1.0 0.00 0.00 0.00 44 1013.8
20260903220328 97 214 0.0 2.0 0.00 0.00 0.00 43 1013.8
20260903215833 97 214 0.0 2.0 0.00 0.00 0.00 44 1013.9
20260903215331 97 211 0.0 1.0 0.00 0.00 0.00 44 1014.0
20260903214830 97 212 0.0 1.0 0.00 0.00 0.00 43 1013.9
20260903214328 97 212 0.0 2.0 0.00 0.00 0.00 43 1013.9
20260903213833 97 210 0.0 3.0 0.00 0.00 0.00 43 1014.0
20260903213328 97 279 0.0 3.0 0.00 0.00 0.00 42 1014.1
20260903212826 98 281 0.0 1.0 0.00 0.00 0.00 43 1014.1
20260903211827 98 281 1.0 4.0 0.00 0.00 0.00 45 1014.2
20260903211330 98 285 0.0 4.0 0.00 0.00 0.00 43 1014.3
20260903210827 98 284 0.0 2.0 0.00 0.00 0.00 42 1014.3
20260903210328 98 199 0.0 3.0 0.00 0.00 0.00 45 1014.4
20260903205825 98 199 1.0 3.0 0.00 0.00 0.00 43 1014.4
20260903205319 99 315 1.0 4.0 0.00 0.00 0.00 42 1014.5
20260903204821 99 316 1.0 4.0 0.00 0.00 0.00 42 1014.5
20260903204332 98 312 1.0 4.0 0.00 0.00 0.00 44 1014.5
20260903203818 98 322 1.0 3.0 0.00 0.00 0.00 45 1014.6
20260903203318 97 290 0.0 2.0 0.00 0.00 0.00 45 1014.7
20260903202818 96 290 0.0 2.0 0.00 0.00 0.00 50 1014.6
20260903202541 94 290 0.0 0.0 0.00 0.00 0.00 51 1014.7
20260903201817 95 290 1.0 3.0 0.00 0.00 0.00 48 1014.7
20260903201534 96 290 1.0 3.0 0.00 0.00 0.00 46 1014.8
20260903200814 97 281 0.0 3.0 0.00 0.00 0.00 43 1014.8
20260903200312 96 285 0.0 2.0 0.00 0.00 0.00 46 1014.9
20260903195813 96 285 0.0 3.0 0.00 0.00 0.00 48 1015.0
20260903195538 97 285 0.0 3.0 0.00 0.00 0.00 47 1015.0
20260903194814 97 255 0.0 0.0 0.00 0.00 0.00 46 1015.0
20260903194551 96 254 0.0 0.0 0.00 0.00 0.00 48 1015.0
20260903193816 96 254 0.0 0.0 0.00 0.00 0.00 49 1015.0
20260903193308 93 254 0.0 0.0 0.00 0.00 0.00 53 1015.1
20260903192811 94 254 0.0 0.0 0.00 0.00 0.00 49 1015.2
20260903192312 95 254 0.0 1.0 0.00 0.00 0.00 46 1015.3
20260903191807 96 254 0.0 1.0 0.00 0.00 0.00 47 1015.3
20260903191537 96 255 0.0 4.0 0.00 0.00 0.00 46 1015.4
20260903190808 98 255 1.0 4.0 0.00 0.00 0.00 45 1015.4
20260903190308 98 165 1.0 5.0 0.00 0.00 0.00 42 1015.4
20260903190031 99 327 1.0 5.0 0.00 0.00 0.00 43 1015.5
20260903185529 98 323 1.0 4.0 0.00 0.00 0.00 42 1015.5
20260903184801 98 255 1.0 4.0 0.00 0.00 0.00 44 1015.4
20260903184304 98 342 2.0 4.0 0.00 0.00 0.00 43 1015.5
20260903183756 98 315 2.0 4.0 0.00 0.00 0.00 43 1015.6
20260903183255 97 281 1.0 4.0 0.00 0.00 0.00 47 1015.6
20260903182758 97 300 1.0 7.0 0.00 0.00 0.00 44 1015.7
20260903182250 98 300 1.0 7.0 0.00 0.00 0.00 44 1015.8
20260903181748 96 275 0.0 3.0 0.00 0.00 0.00 47 1015.8
20260903181519 96 23 1.0 3.0 0.00 0.00 0.00 48 1015.8
20260903180748 97 346 1.0 3.0 0.00 0.00 0.00 45 1015.9
20260903180244 96 315 1.0 5.0 0.00 0.00 0.00 46 1016.0
20260903180006 97 333 2.0 5.0 0.00 0.00 0.00 45 1016.1
20260903175244 97 306 2.0 5.0 0.00 0.00 0.00 47 1016.0
20260903174743 96 44 1.0 5.0 0.00 0.00 0.00 46 1016.1
20260903174242 96 293 1.0 4.0 0.00 0.00 0.00 48 1016.2
20260903173744 96 16 1.0 4.0 0.00 0.00 0.00 48 1016.2
20260903173238 96 19 1.0 3.0 0.00 0.00 0.00 50 1016.2
20260903172736 96 296 1.0 3.0 0.00 0.00 0.00 47 1016.3
20260903172456 96 285 1.0 5.0 0.00 0.00 0.00 48 1016.3
20260903171957 96 286 1.0 5.0 0.00 0.00 0.00 47 1016.4
20260903171232 95 323 1.0 4.0 0.00 0.00 0.00 50 1016.4
20260903170732 95 354 1.0 4.0 0.00 0.00 0.00 50 1016.4
20260903165725 94 0 1.0 3.0 0.00 0.00 0.00 49 1016.4
20260903165226 95 296 1.0 3.0 0.00 0.00 0.00 51 1016.5
20260903164720 94 308 1.0 4.0 0.00 0.00 0.00 50 1016.5
20260903164218 94 263 1.0 4.0 0.00 0.00 0.00 52 1016.7
20260903163716 94 304 1.0 4.0 0.00 0.00 0.00 52 1016.6
20260903163226 93 300 0.0 4.0 0.00 0.00 0.00 53 1016.7
20260903162712 93 329 0.0 2.0 0.00 0.00 0.00 54 1016.8
20260903162213 93 329 0.0 1.0 0.00 0.00 0.00 56 1016.8
20260903161714 93 329 1.0 4.0 0.00 0.00 0.00 54 1016.8
20260903161213 93 329 1.0 4.0 0.00 0.00 0.00 55 1016.8
20260903160708 92 15 1.0 3.0 0.00 0.00 0.00 56 1016.9
20260903160207 93 331 0.0 2.0 0.00 0.00 0.00 53 1016.9
20260903155707 92 4 1.0 4.0 0.00 0.00 0.00 54 1016.9
20260903155202 92 156 1.0 4.0 0.00 0.00 0.00 55 1016.9
20260903154700 92 317 1.0 3.0 0.00 0.00 0.00 56 1016.9
20260903153654 91 287 0.0 3.0 0.00 0.00 0.00 56 1016.9
20260903153152 91 280 0.0 3.0 0.00 0.00 0.00 57 1017.0
20260903152651 91 249 0.0 2.0 0.00 0.00 0.00 59 1017.0
20260903152146 90 249 0.0 4.0 0.00 0.00 0.00 59 1016.9
20260903151644 90 214 0.0 4.0 0.00 0.00 0.00 58 1017.0
20260903151406 89 310 0.0 3.0 0.00 0.00 0.00 61 1016.9
20260903150643 89 310 1.0 4.0 0.00 0.00 0.00 62 1017.0
20260903150143 88 312 0.0 4.0 0.00 0.00 0.00 63 1017.0
20260903145643 87 204 0.0 1.0 0.00 0.00 0.00 67 1017.0
20260903145142 87 204 0.0 2.0 0.00 0.00 0.00 67 1017.0
20260903144645 87 204 0.0 2.0 0.00 0.00 0.00 68 1017.0
20260903144145 86 202 0.0 0.0 0.00 0.00 0.00 71 1017.0
20260903143640 85 202 0.0 0.0 0.00 0.00 0.00 72 1017.0
20260903143141 85 202 0.0 2.0 0.00 0.00 0.00 72 1017.0
20260903142901 84 202 0.0 2.0 0.00 0.00 0.00 74 1017.0
20260903142138 83 188 0.0 1.0 0.00 0.00 0.00 76 1017.0
20260903141642 82 188 0.0 1.0 0.00 0.00 0.00 80 1017.0
20260903141138 81 188 0.0 0.0 0.00 0.00 0.00 83 1017.0
20260903140634 80 188 0.0 0.0 0.00 0.00 0.00 86 1017.1
20260903140136 78 188 0.0 0.0 0.00 0.00 0.00 88 1017.1
20260903135635 77 188 0.0 0.0 0.00 0.00 0.00 88 1017.1
20260903135352 77 188 0.0 0.0 0.00 0.00 0.00 88 1017.2
20260903134634 77 188 0.0 0.0 0.00 0.00 0.00 89 1017.2
20260903134132 76 188 0.0 0.0 0.00 0.00 0.00 89 1017.2
20260903133636 76 188 0.0 0.0 0.00 0.00 0.00 89 1017.3
20260903133133 76 188 0.0 0.0 0.00 0.00 0.00 89 1017.4
20260903132633 76 188 0.0 0.0 0.00 0.00 0.00 89 1017.4
20260903132126 75 188 0.0 0.0 0.00 0.00 0.00 89 1017.4
20260903131628 75 188 0.0 0.0 0.00 0.00 0.00 89 1017.6
20260903131128 75 188 0.0 0.0 0.00 0.00 0.00 89 1017.6
20260903130348 75 188 0.0 0.0 0.00 0.00 0.00 89 1017.7
20260903125624 74 188 0.0 0.0 0.00 0.00 0.00 89 1017.8
20260903125353 74 188 0.0 0.0 0.00 0.00 0.00 89 1017.8
20260903124619 74 188 0.0 0.0 0.00 0.00 0.00 89 1017.8
20260903124120 74 188 0.0 0.0 0.00 0.00 0.00 89 1017.7
20260903123616 74 188 0.0 0.0 0.00 0.00 0.00 89 1017.7
20260903123117 74 188 0.0 0.0 0.00 0.00 0.00 89 1017.8
20260903122613 74 188 0.0 0.0 0.00 0.00 0.00 89 1017.8
20260903122111 74 188 0.0 0.0 0.00 0.00 0.00 89 1017.7
20260903121615 74 188 0.0 0.0 0.00 0.00 0.00 89 1017.7
20260903121110 74 188 0.0 0.0 0.00 0.00 0.00 88 1017.7
20260903120602 74 188 0.0 0.0 0.00 0.00 0.00 89 1017.6
20260903120105 74 188 0.0 0.0 0.00 0.00 0.00 89 1017.6
20260903115840 74 188 0.0 0.0 0.00 0.00 0.00 89 1017.6
20260903115102 74 188 0.0 0.0 0.00 0.00 0.00 89 1017.6
20260903114601 74 188 0.0 0.0 0.00 0.00 0.00 89 1017.4
20260903114057 73 188 0.0 0.0 0.00 0.00 0.00 88 1017.4
20260903113556 73 188 0.0 0.0 0.00 0.00 0.00 89 1017.4
20260903113321 73 188 0.0 0.0 0.00 0.00 0.00 88 1017.4
20260903112554 73 188 0.0 0.0 0.00 0.00 0.00 88 1017.3
20260903112056 73 188 0.0 0.0 0.00 0.00 0.00 88 1017.3
20260903111551 74 188 0.0 0.0 0.00 0.00 0.00 88 1017.2
20260903111102 74 188 0.0 0.0 0.00 0.00 0.00 88 1017.2
20260903110547 74 188 0.0 0.0 0.00 0.00 0.00 88 1017.2
20260903105810 74 188 0.0 0.0 0.00 0.00 0.00 88 1017.1
20260903105043 74 188 0.0 0.0 0.00 0.00 0.00 88 1016.9
20260903104542 74 188 0.0 0.0 0.00 0.00 0.00 88 1016.9
20260903104044 74 188 0.0 0.0 0.00 0.00 0.00 88 1016.9
20260903103540 74 188 0.0 0.0 0.00 0.00 0.00 88 1016.9
20260903103040 74 188 0.0 0.0 0.00 0.00 0.00 88 1016.9
20260903102539 74 188 0.0 0.0 0.00 0.00 0.00 88 1016.9
20260903102319 74 188 0.0 0.0 0.00 0.00 0.00 88 1016.9
20260903101542 74 188 0.0 0.0 0.00 0.00 0.00 88 1016.9
20260903101038 74 188 0.0 0.0 0.00 0.00 0.00 88 1016.9
20260903100551 74 188 0.0 0.0 0.00 0.00 0.00 88 1016.8
20260903100036 74 188 0.0 0.0 0.00 0.00 0.00 88 1016.9
20260903095534 74 188 0.0 0.0 0.00 0.00 0.00 88 1016.8
20260903095035 74 188 0.0 0.0 0.00 0.00 0.00 88 1016.8
20260903094800 74 188 0.0 0.0 0.00 0.00 0.00 88 1016.8
20260903094032 74 188 0.0 0.0 0.00 0.00 0.00 88 1016.9
20260903093534 74 188 0.0 0.0 0.00 0.00 0.00 88 1016.7
20260903093027 74 188 0.0 0.0 0.00 0.00 0.00 88 1016.8
20260903092524 74 188 0.0 0.0 0.00 0.00 0.00 88 1016.7
20260903092028 74 188 0.0 0.0 0.00 0.00 0.00 88 1016.7
20260903091753 74 188 0.0 0.0 0.00 0.00 0.00 88 1016.7
20260903091039 74 188 0.0 0.0 0.00 0.00 0.00 87 1016.7
20260903090537 75 188 0.0 0.0 0.00 0.00 0.00 88 1016.6
20260903090245 75 188 0.0 0.0 0.00 0.00 0.00 88 1016.6
20260903085524 75 188 0.0 0.0 0.00 0.00 0.00 88 1016.6
20260903085023 75 188 0.0 0.0 0.00 0.00 0.00 88 1016.6
20260903084523 75 188 0.0 0.0 0.00 0.00 0.00 88 1016.5
20260903084017 75 188 0.0 0.0 0.00 0.00 0.00 87 1016.5
20260903083514 75 188 0.0 0.0 0.00 0.00 0.00 88 1016.5
20260903083237 75 188 0.0 0.0 0.00 0.00 0.00 88 1016.5
20260903082512 75 188 0.0 0.0 0.00 0.00 0.00 88 1016.4
20260903082009 75 188 0.0 0.0 0.00 0.00 0.00 88 1016.4
20260903081512 75 188 0.0 0.0 0.00 0.00 0.00 88 1016.3
20260903081008 75 188 0.0 0.0 0.00 0.00 0.00 88 1016.4
20260903080505 75 188 0.0 0.0 0.00 0.00 0.00 88 1016.4
20260903080008 75 188 0.0 0.0 0.00 0.00 0.00 88 1016.3
20260903075501 75 188 0.0 0.0 0.00 0.00 0.00 88 1016.3
20260903075235 75 188 0.0 0.0 0.00 0.00 0.00 88 1016.2
20260903074504 75 188 0.0 0.0 0.00 0.00 0.00 87 1016.3
20260903074221 75 188 0.0 0.0 0.00 0.00 0.00 87 1016.2
20260903073500 75 188 0.0 0.0 0.00 0.00 0.00 87 1016.3
20260903072958 75 188 0.0 0.0 0.00 0.00 0.00 87 1016.2
20260903072453 75 188 0.0 0.0 0.00 0.00 0.00 87 1016.2
20260903071951 75 188 0.0 0.0 0.00 0.00 0.00 87 1016.2
20260903071450 75 188 0.0 0.0 0.00 0.00 0.00 88 1016.2
20260903070948 75 188 0.0 0.0 0.00 0.00 0.00 87 1016.2
20260903070447 76 188 0.0 0.0 0.00 0.00 0.00 87 1016.1
20260903070205 76 188 0.0 0.0 0.00 0.00 0.00 87 1016.1
20260903065439 76 188 0.0 0.0 0.00 0.00 0.00 87 1016.2
20260903064940 76 188 0.0 0.0 0.00 0.00 0.00 87 1016.1
20260903064439 76 188 0.0 0.0 0.00 0.00 0.00 87 1016.1
20260903063940 76 188 0.0 0.0 0.00 0.00 0.00 87 1016.1
20260903063706 76 188 0.0 0.0 0.00 0.00 0.00 86 1016.1
20260903062934 76 188 0.0 0.0 0.00 0.00 0.00 86 1016.0
20260903062433 76 188 0.0 0.0 0.00 0.00 0.00 86 1016.1
20260903061934 76 188 0.0 0.0 0.00 0.00 0.00 86 1016.1
20260903061650 76 188 0.0 0.0 0.00 0.00 0.00 86 1016.1
20260903061204 76 188 0.0 0.0 0.00 0.00 0.00 86 1016.1